Regional Weather Roundup
Issued by NWS

Home | Current Version | Previous Version | Text Only | Print | Product List | Glossary On
Versions: 1 2 3 4 5 6 7 8 9 10 11 12 13 14 15 16 17 18 19 20 21 22 23 24 25 26 27 28 29 30 31 32 33 34 35 36 37 38 39 40 41 42 43 44 45 46 47 48 49 50
555
ASUS43 KMKX 300011
RWRWI

WISCONSIN REGIONAL WEATHER ROUNDUP
NATIONAL WEATHER SERVICE MILWAUKEE/SULLIVAN WI
700 PM CDT SAT APR 29 2017

NOTE: "FAIR" INDICATES FEW OR NO CLOUDS BELOW 12,000 FEET WITH NO
SIGNIFICANT WEATHER AND/OR OBSTRUCTIONS TO VISIBILITY.

WIZ001-002-006>008-014>016-023>028-300100-
NORTHWEST WISCONSIN

CITY           SKY/WX    TMP DP  RH WIND       PRES   REMARKS
SUPERIOR ARPT  CLOUDY    40  26  56 NE12      30.29F WCI  33
6HR MIN TEMP:  40; 6HR MAX TEMP:  48;

ASHLAND        CLOUDY    42  20  41 E13       30.30F
6HR MIN TEMP:  42; 6HR MAX TEMP:  47;

HAYWARD        CLOUDY    46  21  37 NE13      30.22F
6HR MIN TEMP:  46; 6HR MAX TEMP:  52;

SIREN          MOSUNNY   50  20  29 NE13G20   30.20F
6HR MIN TEMP:  50; 6HR MAX TEMP:  55;

CUMBERLAND     CLOUDY    46  23  39 N15G23    30.17F
RICE LAKE      CLOUDY    50  25  37 N18G25    30.16F
6HR MIN TEMP:  50; 6HR MAX TEMP:  55;

CHETEK         NOT AVBL
LADYSMITH      CLOUDY    50  25  38 NE18G24   30.16F
6HR MIN TEMP:  50; 6HR MAX TEMP:  54;

EAU CLAIRE     CLOUDY    52  24  33 NE15      30.14F
6HR MIN TEMP:  51; 6HR MAX TEMP:  54;

MENOMONIE      MOSUNNY   53  23  31 NE13G22   30.14S
6HR MIN TEMP:  50; 6HR MAX TEMP:  55;

NEW RICHMOND   PTSUNNY   52  22  30 NE18G24   30.13F
6HR MIN TEMP:  51; 6HR MAX TEMP:  54;

OSCEOLA        MOSUNNY   53  24  32 NE17G24   30.16F
6HR MIN TEMP:  52; 6HR MAX TEMP:  56;

$$

WIZ003>005-009-010-017-018-300100-
NORTH CENTRAL WISCONSIN

CITY           SKY/WX    TMP DP  RH WIND       PRES   REMARKS
MANITOWISH WTR CLOUDY    42  25  49 NE12G21   30.25F
6HR MIN TEMP:  42; 6HR MAX TEMP:  49;

ARBOR VITAE    CLOUDY    46  21  36 NE13      30.23F
6HR MIN TEMP:  46; 6HR MAX TEMP:  52;

WOODRUFF       CLOUDY    46  21  36 NE13      30.23F
6HR MIN TEMP:  46; 6HR MAX TEMP:  52;

RHINELANDER    MOCLDY    48  23  37 NE7       30.22F
6HR MIN TEMP:  48; 6HR MAX TEMP:  51;

EAGLE RIVER    MOCLDY    46  19  34 NE10G17   30.23F
6HR MIN TEMP:  46; 6HR MAX TEMP:  49;

LAND O LAKES   CLOUDY    43  25  48 N13G20    30.27F
6HR MIN TEMP:  43; 6HR MAX TEMP:  49;

PHILLIPS       MOSUNNY   47  24  40 NE13      30.19F
6HR MIN TEMP:  47; 6HR MAX TEMP:  50;

TOMAHAWK       MOCLDY    47  24  40 NE8G18    30.19F
6HR MIN TEMP:  47; 6HR MAX TEMP:  50;

MEDFORD        CLOUDY    47  27  44 NE14G23   30.14F
6HR MIN TEMP:  47; 6HR MAX TEMP:  50;

MERRILL        MOCLDY    49  27  43 E14G20    30.19F
6HR MIN TEMP:  49; 6HR MAX TEMP:  51;

$$

WIZ029-030-035-036-043>047-300100-
CENTRAL WISCONSIN

CITY           SKY/WX    TMP DP  RH WIND       PRES   REMARKS
WAUSAU         CLOUDY    50  25  37 NE13      30.17F
6HR MIN TEMP:  49; 6HR MAX TEMP:  52;

MOSINEE        CLOUDY    48  27  43 E13       30.19
MARSHFIELD     CLOUDY    50  27  40 E15       30.14F
6HR MIN TEMP:  48; 6HR MAX TEMP:  51;

STEVENS POINT  CLOUDY    45  31  57 E10       30.20S
6HR MIN TEMP:  45; 6HR MAX TEMP:  48;

WAUPACA        CLOUDY    47  29  50 E10       30.23F
6HR MIN TEMP:  47; 6HR MAX TEMP:  50;

WAUTOMA        CLOUDY    45  30  55 MISG      30.22F
6HR MIN TEMP:  45; 6HR MAX TEMP:  48;

WISC RAPIDS    CLOUDY    48  31  51 E12       30.19F
6HR MIN TEMP:  48; 6HR MAX TEMP:  50;

CAMP DOUGLAS   CLOUDY    46  29  52 E18G25    30.13F
6HR MIN TEMP:  46; 6HR MAX TEMP:  48;

$$

WIZ011>013-019>022-031-037>040-048>050-300100-
NORTHEAST WISCONSIN

CITY           SKY/WX    TMP DP  RH WIND       PRES   REMARKS
ANTIGO         CLOUDY    46  26  44 E14       30.21R
6HR MIN TEMP:  46; 6HR MAX TEMP:  50;

SHAWANO        CLOUDY    47  31  53 E9        30.25R
6HR MIN TEMP:  47; 6HR MAX TEMP:  52;

OCONTO         MOCLDY    46  27  48 E8G17     30.26R
STURGEON BAY   CLOUDY    46  27  47 NE6       30.27R
6HR MIN TEMP:  44; 6HR MAX TEMP:  46;

GREEN BAY      CLOUDY    47  32  56 E14       30.26R
6HR MIN TEMP:  45; 6HR MAX TEMP:  48;

MANITOWOC      CLOUDY    42  28  57 NE8       30.27S
6HR MIN TEMP:  40; 6HR MAX TEMP:  43;

APPLETON       CLOUDY    45  27  49 NE14G21   30.23S
CLINTONVILLE   CLOUDY    45  28  53 E8        30.24S
OSHKOSH        CLOUDY    44  30  57 E14G21    30.22F
6HR MIN TEMP:  44; 6HR MAX TEMP:  46;

$$

WIZ032>034-041-042-053>061-300100-
SOUTHWEST WISCONSIN

CITY           SKY/WX    TMP DP  RH WIND       PRES   REMARKS
LA CROSSE      PTSUNNY   50  29  44 E14G23    30.13F
6HR MIN TEMP:  49; 6HR MAX TEMP:  52;

SPARTA         CLOUDY    47  31  53 E14G25    30.12F
6HR MIN TEMP:  47; 6HR MAX TEMP:  49;

VIROQUA        MOSUNNY   45  31  58 E22G33    30.08F
6HR MIN TEMP:  44; 6HR MAX TEMP:  46;

BOSCOBEL       CLOUDY    44  34  67 E14G30    30.08F
6HR MIN TEMP:  44; 6HR MAX TEMP:  48; 6HR PCP:  0.02;

PRAIRIE DU CHI CLOUDY    43  33  66 NE17      30.10R
6HR MIN TEMP:  43; 6HR MAX TEMP:  46; 6HR PCP:  0.03;

PLATTEVILLE    CLOUDY    41  37  86 NE32G44   30.00F
6HR MIN TEMP:  41; 6HR MAX TEMP:  45;

$$

WIZ056-057-062-063-064-067-068-300100-
SOUTH CENTRAL WISCONSIN

CITY           SKY/WX    TMP DP  RH WIND       PRES   REMARKS
REEDSBURG      CLOUDY    44  30  58 E17G23    30.17F
BARABOO/DELLS  DRIZZLE   42  32  68 E15G22    30.17F
6HR MIN TEMP:  42; 6HR MAX TEMP:  45;

LONE ROCK      CLOUDY    41  35  79 E22G29    30.12F
6HR MIN TEMP:  41; 6HR MAX TEMP:  47; 6HR PCP:  0.04;

MINERAL POINT  CLOUDY    41  39  93 NE28G38   30.05F
MADISON        LGT RAIN  38  34  85 NE20G26   30.17F WCI  28
6HR MIN TEMP:  38; 6HR MAX TEMP:  45; 6HR PCP:  0.05;

MIDDLETON      CLOUDY    40  35  83 NE16G24   30.18F WCI  32
6HR MIN TEMP:  40; 6HR MAX TEMP:  46; 6HR PCP:  0.02;

WATERTOWN      LGT RAIN  37  34  90 NE14G20   30.19F WCI  28
6HR MIN TEMP:  37; 6HR MAX TEMP:  44; 6HR PCP:  0.04;

MONROE         CLOUDY    37  34  87 NE28      30.09F WCI  25
JANESVILLE     LGT RAIN  39  39 100 NE18G24   30.12F WCI  30
$$

WIZ051-052-058>065-066-070>072-300100-
SOUTHEAST WISCONSIN

CITY           SKY/WX    TMP DP  RH WIND       PRES   REMARKS
MILWAUKEE      LGT RAIN  39  36  89 N17G25    30.20F FOG     WCI  30
6HR MIN TEMP:  39; 6HR MAX TEMP:  41; 6HR PCP:  0.13;

WAUKESHA       LGT RAIN  36  32  87 NE10G18   30.21F WCI  28
MILWAUKEE/TIMM RAIN      37  32  81 N16G24    30.22F WCI  28
RACINE         RAIN      39  35  86 N18G30    30.19F FOG     WCI  30
6HR MIN TEMP:  38; 6HR MAX TEMP:  41; 6HR PCP:  0.20;

KENOSHA        RAIN      38  35  89 NE16G25   30.17F FOG     WCI  29
6HR MIN TEMP:  38; 6HR MAX TEMP:  41; 6HR PCP:  0.31;

FOND DU LAC    CLOUDY    44  25  47 E15       30.23F
6HR MIN TEMP:  44; 6HR MAX TEMP:  46;

SHEBOYGAN      CLOUDY    42  34  73 NE17      30.26R
6HR MIN TEMP:  40; 6HR MAX TEMP:  43;

WEST BEND      RAIN      36  32  87 NE10G18   30.22F WCI  28
JUNEAU         LGT RAIN  37  33  85 NE10      30.23F WCI  29
6HR MIN TEMP:  37; 6HR MAX TEMP:  44; 6HR PCP:  0.02;

$$

LSZ147-162-300100-
LAKE SUPERIOR

STATION/POSITION TIME  TEMP    WIND        PRES    WAVE
                       AIR SEA DIR/SP/G            HT/PER
                 (UTC) (F)     (DEG/KT/KT) (MB)    (FT/S)
DEVILS ISLAND    0000   38      60/ 10/ 11 1027.1F
PORT WING        2320   40      30/ 14/ 18 1026.8
SAXON HARBOR     2340   38      40/ 11/ 12 1026.1F
$$

LMZ867-665-643>646-300100-
LAKE MICHIGAN

STATION/POSITION TIME  TEMP    WIND        PRES    WAVE
                       AIR SEA DIR/SP/G            HT/PER
                 (UTC) (F)     (DEG/KT/KT) (MB)    (FT/S)
CHAMBERS ISLAND  2340   44      30/ 13/ 17 1024.0F
N MID LAKE BUOY  2350   41 37   20/ 12/ 12 1025.8F   1
NORTHPORT PIER   2340   45      20/ 10/ 14 1024.4F
SISTER BAY       2251   45      20/ 10/ 12   N/A
KEWAUNEE LAKESHO 2342   42      40/  9/ 12 1024.7R



USA.gov is the U.S. government's official web portal to all federal, state and local government web resources and services.